Wetterdaten: Woche 08.01.18 - 14.01.18 (KW2)
Datum Zeit Temp. Aussen Temp. o. S. +5cm Feuchte Auss BlattFeu 1 Luftdruck Regen Sonnenschein Regendauer Solar Windben Empfang
08.01.2018 00:00 2,2 C 2,2 C 1,1 C 87 % 0 lf 1024,5 hPa 0,0 l/m 0,00 h 0,00 h 0 W/m 35,9 km/h (5 Bft) 96,60 %
08.01.2018 01:00 2,3 C 2,2 C 1,1 C 87 % 0 lf 1024,3 hPa 0,0 l/m 0,00 h 0,00 h 0 W/m 38,2 km/h (5 Bft) 97,22 %
08.01.2018 02:00 2,2 C 2,2 C 1,1 C 88 % 0 lf 1024,1 hPa 0,0 l/m 0,00 h 0,00 h 0 W/m 35,2 km/h (5 Bft) 95,59 %
08.01.2018 03:00 2,1 C 2,2 C 1,1 C 88 % 0 lf 1023,9 hPa 0,0 l/m 0,00 h 0,00 h 0 W/m 36,9 km/h (5 Bft) 97,01 %
08.01.2018 04:00 2,1 C 2,2 C 1,1 C 88 % 0 lf 1023,8 hPa 0,0 l/m 0,00 h 0,00 h 0 W/m 30,5 km/h (5 Bft) 96,43 %
08.01.2018 05:00 2,2 C 2,2 C 1,1 C 88 % 0 lf 1023,8 hPa 0,0 l/m 0,00 h 0,00 h 0 W/m 27,1 km/h (4 Bft) 97,41 %
08.01.2018 06:00 2,1 C 2,2 C 1,1 C 88 % 0 lf 1023,7 hPa 0,0 l/m 0,00 h 0,00 h 0 W/m 25,8 km/h (4 Bft) 97,27 %
08.01.2018 07:00 2,3 C 2,2 C 1,7 C 88 % 0 lf 1023,6 hPa 0,0 l/m 0,00 h 0,00 h 0 W/m 26,7 km/h (4 Bft) 95,65 %
08.01.2018 08:00 2,5 C 2,7 C 1,7 C 88 % 0 lf 1023,4 hPa 0,0 l/m 0,00 h 0,00 h 4 W/m 33,0 km/h (5 Bft) 95,69 %
08.01.2018 09:00 2,6 C 2,8 C 1,7 C 88 % 0 lf 1023,5 hPa 0,0 l/m 0,00 h 0,00 h 14 W/m 31,3 km/h (5 Bft) 98,14 %
08.01.2018 10:00 2,6 C 2,9 C 2,0 C 88 % 0 lf 1023,4 hPa 0,0 l/m 0,00 h 0,00 h 43 W/m 32,0 km/h (5 Bft) 96,66 %
08.01.2018 11:00 2,9 C 3,4 C 2,9 C 87 % 0 lf 1023,0 hPa 0,0 l/m 0,00 h 0,00 h 64 W/m 25,5 km/h (4 Bft) 95,31 %
08.01.2018 12:00 3,3 C 3,8 C 3,1 C 87 % 0 lf 1022,1 hPa 0,0 l/m 0,00 h 0,00 h 69 W/m 26,2 km/h (4 Bft) 95,55 %
08.01.2018 13:00 4,0 C 4,6 C 4,0 C 86 % 0 lf 1021,6 hPa 0,0 l/m 0,00 h 0,00 h 84 W/m 21,6 km/h (4 Bft) 97,49 %
08.01.2018 14:00 4,5 C 5,6 C 3,9 C 85 % 0 lf 1020,9 hPa 0,0 l/m 0,10 h 0,00 h 103 W/m 19,8 km/h (3 Bft) 96,16 %
08.01.2018 15:00 4,9 C 5,7 C 4,0 C 84 % 0 lf 1020,6 hPa 0,0 l/m 0,70 h 0,00 h 85 W/m 18,4 km/h (3 Bft) 95,18 %
08.01.2018 16:00 4,8 C 4,1 C 2,2 C 84 % 0 lf 1020,1 hPa 0,0 l/m 0,00 h 0,00 h 12 W/m 14,1 km/h (3 Bft) 96,46 %
08.01.2018 17:00 3,7 C 3,3 C 1,5 C 87 % 0 lf 1019,9 hPa 0,0 l/m 0,00 h 0,00 h 0 W/m 18,8 km/h (3 Bft) 97,65 %
08.01.2018 18:00 3,2 C 3,0 C 1,6 C 89 % 0 lf 1019,4 hPa 0,0 l/m 0,00 h 0,00 h 0 W/m 21,9 km/h (4 Bft) 94,60 %
08.01.2018 19:00 2,9 C 2,6 C 1,3 C 89 % 0 lf 1019,0 hPa 0,0 l/m 0,00 h 0,00 h 0 W/m 20,5 km/h (4 Bft) 95,86 %
08.01.2018 20:00 2,5 C 2,3 C 0,9 C 90 % 0 lf 1018,6 hPa 0,0 l/m 0,00 h 0,00 h 0 W/m 23,1 km/h (4 Bft) 95,93 %
08.01.2018 21:00 2,1 C 2,0 C 0,6 C 91 % 0 lf 1018,3 hPa 0,0 l/m 0,00 h 0,00 h 0 W/m 22,4 km/h (4 Bft) 98,34 %
08.01.2018 22:00 1,8 C 1,7 C 0,6 C 92 % 0 lf 1017,7 hPa 0,0 l/m 0,00 h 0,00 h 0 W/m 20,3 km/h (4 Bft) 94,75 %
08.01.2018 23:00 1,6 C 1,4 C 0,1 C 93 % 0 lf 1017,1 hPa 0,0 l/m 0,00 h 0,00 h 0 W/m 17,4 km/h (3 Bft) 96,05 %
09.01.2018 00:00 1,6 C 1,5 C 0,2 C 93 % 0 lf 1016,1 hPa 0,0 l/m 0,00 h 0,00 h 0 W/m 17,3 km/h (3 Bft) 98,36 %
09.01.2018 01:00 1,9 C 1,9 C 0,6 C 94 % 0 lf 1015,0 hPa 0,0 l/m 0,00 h 0,00 h 0 W/m 21,4 km/h (4 Bft) 95,64 %
09.01.2018 02:00 1,9 C 1,8 C 0,4 C 94 % 0 lf 1014,0 hPa 0,0 l/m 0,00 h 0,00 h 0 W/m 18,7 km/h (3 Bft) 95,17 %
09.01.2018 03:00 1,8 C 1,7 C 0,2 C 94 % 0 lf 1013,1 hPa 0,0 l/m 0,00 h 0,00 h 0 W/m 18,3 km/h (3 Bft) 98,51 %
09.01.2018 04:00 1,6 C 1,5 C 0,2 C 94 % 0 lf 1012,5 hPa 0,0 l/m 0,00 h 0,00 h 0 W/m 18,6 km/h (3 Bft) 95,70 %
09.01.2018 05:00 1,4 C 1,2 C 0,0 C 94 % 0 lf 1012,0 hPa 0,0 l/m 0,00 h 0,00 h 0 W/m 16,3 km/h (3 Bft) 97,32 %
09.01.2018 06:00 1,5 C 1,4 C 0,1 C 95 % 0 lf 1011,2 hPa 0,0 l/m 0,00 h 0,00 h 0 W/m 17,8 km/h (3 Bft) 96,04 %
09.01.2018 07:00 1,5 C 0,9 C -0,4 C 95 % 1 lf 1010,8 hPa 0,0 l/m 0,00 h 0,00 h 0 W/m 8,4 km/h (2 Bft) 94,80 %
09.01.2018 08:00 1,4 C 1,6 C 0,2 C 95 % 1 lf 1010,7 hPa 0,0 l/m 0,03 h 0,00 h 12 W/m 8,1 km/h (2 Bft) 98,43 %
09.01.2018 09:00 3,5 C 4,5 C 2,8 C 97 % 0 lf 1010,3 hPa 0,0 l/m 0,13 h 0,00 h 41 W/m 20,8 km/h (4 Bft) 96,44 %
09.01.2018 10:00 4,6 C 5,1 C 3,4 C 94 % 0 lf 1010,0 hPa 0,0 l/m 0,00 h 0,00 h 58 W/m 18,3 km/h (3 Bft) 94,84 %
09.01.2018 11:00 5,3 C 6,0 C 4,7 C 92 % 0 lf 1009,5 hPa 0,0 l/m 0,00 h 0,00 h 92 W/m 17,6 km/h (3 Bft) 98,62 %
09.01.2018 12:00 5,8 C 6,3 C 5,4 C 90 % 0 lf 1008,9 hPa 0,0 l/m 0,00 h 0,00 h 103 W/m 20,2 km/h (4 Bft) 96,02 %
09.01.2018 13:00 6,1 C 6,3 C 5,5 C 89 % 0 lf 1008,7 hPa 0,0 l/m 0,00 h 0,00 h 86 W/m 20,6 km/h (4 Bft) 95,02 %
09.01.2018 14:00 6,2 C 6,4 C 5,4 C 89 % 0 lf 1008,2 hPa 0,0 l/m 0,00 h 0,00 h 52 W/m 17,6 km/h (3 Bft) 97,77 %
09.01.2018 15:00 6,4 C 6,7 C 5,6 C 89 % 0 lf 1008,1 hPa 0,0 l/m 0,33 h 0,00 h 62 W/m 14,2 km/h (3 Bft) 95,49 %
09.01.2018 16:00 6,5 C 6,4 C 4,6 C 89 % 0 lf 1008,3 hPa 0,0 l/m 0,53 h 0,00 h 24 W/m 16,0 km/h (3 Bft) 97,96 %
09.01.2018 17:00 5,9 C 5,5 C 3,7 C 90 % 0 lf 1008,4 hPa 0,0 l/m 0,00 h 0,00 h 1 W/m 17,1 km/h (3 Bft) 96,22 %
09.01.2018 18:00 5,2 C 4,8 C 3,0 C 91 % 0 lf 1008,6 hPa 0,0 l/m 0,00 h 0,00 h 0 W/m 15,9 km/h (3 Bft) 95,15 %
09.01.2018 19:00 4,8 C 4,6 C 2,5 C 93 % 0 lf 1008,7 hPa 0,0 l/m 0,00 h 0,00 h 0 W/m 12,3 km/h (3 Bft) 98,56 %
09.01.2018 20:00 4,5 C 4,4 C 2,4 C 93 % 0 lf 1008,9 hPa 0,0 l/m 0,00 h 0,00 h 0 W/m 13,3 km/h (3 Bft) 97,21 %
09.01.2018 21:00 4,6 C 4,7 C 3,1 C 94 % 0 lf 1009,0 hPa 0,0 l/m 0,00 h 0,00 h 0 W/m 17,9 km/h (3 Bft) 93,10 %
09.01.2018 22:00 5,0 C 5,0 C 3,4 C 94 % 0 lf 1009,0 hPa 0,0 l/m 0,00 h 0,00 h 0 W/m 15,5 km/h (3 Bft) 98,57 %
09.01.2018 23:00 5,1 C 5,2 C 3,5 C 94 % 0 lf 1009,0 hPa 0,0 l/m 0,00 h 0,03 h 0 W/m 15,5 km/h (3 Bft) 95,85 %
10.01.2018 00:00 5,6 C 5,6 C 4,4 C 94 % 0 lf 1008,9 hPa 0,0 l/m 0,00 h 0,03 h 0 W/m 16,7 km/h (3 Bft) 96,01 %
10.01.2018 01:00 5,7 C 5,6 C 4,2 C 94 % 0 lf 1008,6 hPa 0,0 l/m 0,00 h 0,00 h 0 W/m 11,9 km/h (2 Bft) 96,30 %
10.01.2018 02:00 5,8 C 5,6 C 4,4 C 95 % 0 lf 1008,2 hPa 0,0 l/m 0,00 h 0,00 h 0 W/m 12,6 km/h (3 Bft) 96,87 %
10.01.2018 03:00 5,9 C 5,8 C 4,4 C 95 % 0 lf 1008,3 hPa 0,0 l/m 0,00 h 0,00 h 0 W/m 12,7 km/h (3 Bft) 97,08 %
10.01.2018 04:00 6,1 C 6,1 C 4,8 C 95 % 0 lf 1008,0 hPa 0,0 l/m 0,00 h 0,00 h 0 W/m 13,6 km/h (3 Bft) 96,62 %
10.01.2018 05:00 6,2 C 6,1 C 5,0 C 95 % 0 lf 1007,7 hPa 0,0 l/m 0,00 h 0,03 h 0 W/m 10,7 km/h (2 Bft) 95,11 %
10.01.2018 06:00 6,4 C 6,4 C 5,0 C 95 % 0 lf 1007,8 hPa 0,0 l/m 0,00 h 0,30 h 0 W/m 13,9 km/h (3 Bft) 98,44 %
10.01.2018 07:00 6,6 C 6,6 C 5,0 C 95 % 0 lf 1007,8 hPa 0,0 l/m 0,00 h 0,07 h 0 W/m 14,0 km/h (3 Bft) 96,39 %
10.01.2018 08:00 6,6 C 6,3 C 5,0 C 95 % 0 lf 1007,9 hPa 0,0 l/m 0,00 h 0,40 h 6 W/m 12,1 km/h (2 Bft) 94,74 %
10.01.2018 09:00 6,6 C 6,1 C 5,1 C 95 % 1 lf 1008,1 hPa 0,2 l/m 0,00 h 0,53 h 29 W/m 10,7 km/h (2 Bft) 96,94 %
10.01.2018 10:00 7,0 C 7,1 C 5,9 C 96 % 0 lf 1008,4 hPa 0,0 l/m 0,00 h 0,07 h 63 W/m 16,7 km/h (3 Bft) 97,72 %
10.01.2018 11:00 7,9 C 8,6 C 6,7 C 90 % 0 lf 1008,2 hPa 0,0 l/m 0,00 h 0,00 h 94 W/m 17,2 km/h (3 Bft) 95,80 %
10.01.2018 12:00 8,3 C 9,2 C 7,5 C 87 % 0 lf 1007,7 hPa 0,0 l/m 0,00 h 0,00 h 118 W/m 18,0 km/h (3 Bft) 96,68 %
10.01.2018 13:00 8,8 C 9,4 C 8,3 C 85 % 0 lf 1007,3 hPa 0,0 l/m 0,00 h 0,00 h 105 W/m 19,1 km/h (3 Bft) 95,97 %
10.01.2018 14:00 8,9 C 9,4 C 8,3 C 84 % 0 lf 1007,2 hPa 0,0 l/m 0,00 h 0,00 h 78 W/m 18,0 km/h (3 Bft) 97,86 %
10.01.2018 15:00 9,1 C 9,3 C 8,0 C 83 % 0 lf 1007,4 hPa 0,0 l/m 0,07 h 0,00 h 53 W/m 17,1 km/h (3 Bft) 95,39 %
10.01.2018 16:00 8,8 C 8,4 C 6,5 C 83 % 0 lf 1007,7 hPa 0,0 l/m 0,00 h 0,00 h 12 W/m 8,4 km/h (2 Bft) 96,79 %
10.01.2018 17:00 8,3 C 7,9 C 6,1 C 86 % 0 lf 1007,9 hPa 0,0 l/m 0,00 h 0,00 h 0 W/m 6,8 km/h (2 Bft) 97,01 %
10.01.2018 18:00 7,9 C 7,8 C 5,6 C 87 % 0 lf 1008,3 hPa 0,0 l/m 0,00 h 0,00 h 0 W/m 5,3 km/h (1 Bft) 97,22 %
10.01.2018 19:00 7,7 C 7,7 C 5,6 C 87 % 0 lf 1008,5 hPa 0,0 l/m 0,00 h 0,00 h 0 W/m 6,4 km/h (2 Bft) 94,88 %
10.01.2018 20:00 7,8 C 7,8 C 6,2 C 86 % 0 lf 1008,8 hPa 0,0 l/m 0,00 h 0,00 h 0 W/m 10,1 km/h (2 Bft) 98,22 %
10.01.2018 21:00 7,8 C 7,2 C 5,3 C 87 % 2 lf 1009,1 hPa 0,0 l/m 0,00 h 0,40 h 0 W/m 5,9 km/h (2 Bft) 96,16 %
10.01.2018 22:00 7,4 C 6,3 C 4,9 C 89 % 4 lf 1009,4 hPa 0,0 l/m 0,00 h 0,50 h 0 W/m 7,1 km/h (2 Bft) 96,65 %
10.01.2018 23:00 7,0 C 6,1 C 4,6 C 91 % 15 lf 1009,6 hPa 0,4 l/m 0,00 h 1,00 h 0 W/m 6,9 km/h (2 Bft) 94,95 %
11.01.2018 00:00 6,7 C 6,0 C 5,0 C 93 % 15 lf 1009,8 hPa 0,2 l/m 0,00 h 0,97 h 0 W/m 6,2 km/h (2 Bft) 97,87 %
11.01.2018 01:00 6,5 C 5,6 C 4,6 C 95 % 15 lf 1009,9 hPa 0,2 l/m 0,00 h 0,57 h 0 W/m 4,8 km/h (1 Bft) 96,52 %
11.01.2018 02:00 6,1 C 5,3 C 3,9 C 95 % 15 lf 1010,2 hPa 0,0 l/m 0,00 h 0,03 h 0 W/m 0,3 km/h (0 Bft) 95,86 %
11.01.2018 03:00 5,8 C 5,6 C 4,4 C 96 % 15 lf 1010,7 hPa 0,0 l/m 0,00 h 0,00 h 0 W/m 3,8 km/h (1 Bft) 96,67 %
11.01.2018 04:00 5,8 C 5,6 C 4,4 C 96 % 15 lf 1011,0 hPa 0,0 l/m 0,00 h 0,00 h 0 W/m 5,8 km/h (2 Bft) 95,38 %
11.01.2018 05:00 5,7 C 5,5 C 4,2 C 97 % 15 lf 1011,3 hPa 0,0 l/m 0,00 h 0,00 h 0 W/m 0,6 km/h (0 Bft) 97,30 %
11.01.2018 06:00 5,3 C 4,2 C 2,5 C 97 % 15 lf 1011,9 hPa 0,0 l/m 0,00 h 0,00 h 0 W/m 0,0 km/h (0 Bft) 97,13 %
11.01.2018 07:00 4,8 C 4,4 C 3,1 C 97 % 15 lf 1012,6 hPa 0,0 l/m 0,00 h 0,00 h 0 W/m 0,0 km/h (0 Bft) 94,46 %
11.01.2018 08:00 4,9 C 4,9 C 3,8 C 97 % 15 lf 1013,3 hPa 0,0 l/m 0,00 h 0,00 h 7 W/m 0,3 km/h (0 Bft) 97,25 %
11.01.2018 09:00 5,4 C 5,6 C 4,6 C 98 % 15 lf 1014,1 hPa 0,0 l/m 0,00 h 0,00 h 24 W/m 0,3 km/h (0 Bft) 98,88 %
11.01.2018 10:00 6,0 C 6,3 C 5,3 C 98 % 14 lf 1015,0 hPa 0,0 l/m 0,00 h 0,00 h 40 W/m 3,5 km/h (1 Bft) 94,03 %
11.01.2018 11:00 6,6 C 7,3 C 6,3 C 98 % 1 lf 1015,4 hPa 0,0 l/m 0,00 h 0,00 h 85 W/m 4,7 km/h (1 Bft) 97,30 %
11.01.2018 12:00 7,1 C 8,8 C 6,8 C 98 % 0 lf 1015,6 hPa 0,0 l/m 0,13 h 0,00 h 135 W/m 8,4 km/h (2 Bft) 96,87 %
11.01.2018 13:00 7,8 C 14,3 C 6,6 C 98 % 0 lf 1015,8 hPa 0,0 l/m 0,77 h 0,00 h 190 W/m 5,4 km/h (1 Bft) 95,21 %
11.01.2018 14:00 8,6 C 12,0 C 7,4 C 97 % 0 lf 1016,2 hPa 0,0 l/m 0,17 h 0,00 h 105 W/m 5,7 km/h (1 Bft) 96,82 %
11.01.2018 15:00 8,5 C 8,7 C 7,0 C 93 % 0 lf 1017,0 hPa 0,0 l/m 0,00 h 0,00 h 36 W/m 10,1 km/h (2 Bft) 96,50 %
11.01.2018 16:00 8,0 C 7,6 C 6,5 C 93 % 0 lf 1017,7 hPa 0,0 l/m 0,00 h 0,00 h 13 W/m 6,6 km/h (2 Bft) 96,32 %
11.01.2018 17:00 7,6 C 7,0 C 5,8 C 94 % 0 lf 1018,3 hPa 0,0 l/m 0,00 h 0,00 h 0 W/m 4,0 km/h (1 Bft) 96,03 %
11.01.2018 18:00 7,1 C 6,5 C 5,4 C 94 % 0 lf 1019,0 hPa 0,0 l/m 0,00 h 0,00 h 0 W/m 7,3 km/h (2 Bft) 96,30 %
11.01.2018 19:00 6,6 C 5,7 C 4,5 C 95 % 1 lf 1019,4 hPa 0,0 l/m 0,00 h 0,00 h 0 W/m 3,9 km/h (1 Bft) 96,87 %
11.01.2018 20:00 6,2 C 4,9 C 3,4 C 95 % 3 lf 1020,0 hPa 0,0 l/m 0,00 h 0,00 h 0 W/m 3,7 km/h (1 Bft) 97,03 %
11.01.2018 21:00 5,4 C 4,3 C 2,8 C 95 % 13 lf 1020,6 hPa 0,0 l/m 0,00 h 0,00 h 0 W/m 3,2 km/h (1 Bft) 94,86 %
11.01.2018 22:00 4,9 C 3,9 C 2,4 C 95 % 15 lf 1021,1 hPa 0,0 l/m 0,00 h 0,00 h 0 W/m 0,5 km/h (0 Bft) 96,87 %
11.01.2018 23:00 4,4 C 3,7 C 2,5 C 95 % 15 lf 1021,6 hPa 0,0 l/m 0,00 h 0,00 h 0 W/m 2,2 km/h (1 Bft) 98,58 %
12.01.2018 00:00 4,3 C 3,9 C 2,8 C 96 % 15 lf 1022,0 hPa 0,0 l/m 0,00 h 0,00 h 0 W/m 1,4 km/h (1 Bft) 93,92 %
12.01.2018 01:00 4,2 C 3,6 C 2,6 C 96 % 15 lf 1022,2 hPa 0,0 l/m 0,00 h 0,00 h 0 W/m 4,7 km/h (1 Bft) 96,52 %
12.01.2018 02:00 4,2 C 3,9 C 3,0 C 97 % 15 lf 1022,6 hPa 0,0 l/m 0,00 h 0,00 h 0 W/m 8,9 km/h (2 Bft) 97,58 %
12.01.2018 03:00 3,9 C 3,4 C 2,8 C 97 % 15 lf 1023,1 hPa 0,0 l/m 0,00 h 0,00 h 0 W/m 9,3 km/h (2 Bft) 95,30 %
12.01.2018 04:00 3,6 C 3,3 C 2,8 C 97 % 15 lf 1023,4 hPa 0,0 l/m 0,00 h 0,00 h 0 W/m 7,5 km/h (2 Bft) 97,51 %
12.01.2018 05:00 3,6 C 3,3 C 2,8 C 97 % 15 lf 1023,5 hPa 0,0 l/m 0,00 h 0,00 h 0 W/m 5,1 km/h (1 Bft) 95,95 %
12.01.2018 06:00 3,6 C 3,3 C 2,8 C 98 % 15 lf 1023,5 hPa 0,0 l/m 0,00 h 0,00 h 0 W/m 4,5 km/h (1 Bft) 96,24 %
12.01.2018 07:00 3,6 C 3,3 C 2,8 C 98 % 15 lf 1023,9 hPa 0,0 l/m 0,00 h 0,00 h 0 W/m 8,1 km/h (2 Bft) 98,35 %
12.01.2018 08:00 3,7 C 3,4 C 2,8 C 98 % 15 lf 1024,3 hPa 0,0 l/m 0,00 h 0,00 h 4 W/m 5,1 km/h (1 Bft) 96,10 %
12.01.2018 09:00 3,7 C 3,9 C 3,0 C 98 % 15 lf 1024,7 hPa 0,0 l/m 0,00 h 0,00 h 12 W/m 0,3 km/h (0 Bft) 95,06 %
12.01.2018 10:00 4,0 C 4,7 C 3,9 C 98 % 5 lf 1025,2 hPa 0,0 l/m 0,00 h 0,00 h 49 W/m 3,9 km/h (1 Bft) 99,00 %
12.01.2018 11:00 4,2 C 4,6 C 3,9 C 98 % 1 lf 1025,6 hPa 0,0 l/m 0,00 h 0,00 h 37 W/m 4,7 km/h (1 Bft) 94,87 %
12.01.2018 12:00 4,2 C 4,6 C 3,9 C 98 % 1 lf 1025,4 hPa 0,0 l/m 0,00 h 0,00 h 37 W/m 4,1 km/h (1 Bft) 97,27 %
12.01.2018 13:00 4,2 C 4,9 C 3,9 C 98 % 1 lf 1025,2 hPa 0,0 l/m 0,00 h 0,00 h 42 W/m 5,4 km/h (1 Bft) 96,28 %
12.01.2018 14:00 4,2 C 4,8 C 3,9 C 98 % 1 lf 1025,1 hPa 0,0 l/m 0,00 h 0,00 h 34 W/m 5,4 km/h (1 Bft) 95,57 %
12.01.2018 15:00 4,3 C 4,5 C 3,9 C 99 % 0 lf 1025,2 hPa 0,0 l/m 0,00 h 0,00 h 25 W/m 3,8 km/h (1 Bft) 97,76 %
12.01.2018 16:00 4,4 C 4,4 C 3,9 C 99 % 0 lf 1025,4 hPa 0,0 l/m 0,00 h 0,00 h 9 W/m 1,8 km/h (1 Bft) 97,12 %
12.01.2018 17:00 4,4 C 4,4 C 3,4 C 99 % 0 lf 1025,5 hPa 0,0 l/m 0,00 h 0,00 h 0 W/m 0,5 km/h (0 Bft) 93,52 %
12.01.2018 18:00 4,3 C 4,4 C 3,4 C 99 % 0 lf 1025,5 hPa 0,0 l/m 0,00 h 0,00 h 0 W/m 2,1 km/h (1 Bft) 98,29 %
12.01.2018 19:00 4,4 C 4,4 C 3,4 C 99 % 0 lf 1025,6 hPa 0,0 l/m 0,00 h 0,00 h 0 W/m 1,3 km/h (1 Bft) 96,80 %
12.01.2018 20:00 4,4 C 4,4 C 3,3 C 98 % 1 lf 1025,8 hPa 0,0 l/m 0,00 h 0,00 h 0 W/m 0,1 km/h (0 Bft) 95,37 %
12.01.2018 21:00 4,4 C 4,4 C 3,6 C 98 % 0 lf 1026,0 hPa 0,0 l/m 0,00 h 0,00 h 0 W/m 0,8 km/h (0 Bft) 96,44 %
12.01.2018 22:00 4,4 C 4,4 C 3,6 C 98 % 1 lf 1026,1 hPa 0,0 l/m 0,00 h 0,00 h 0 W/m 1,1 km/h (1 Bft) 96,19 %
12.01.2018 23:00 4,6 C 4,4 C 3,6 C 98 % 3 lf 1025,9 hPa 0,0 l/m 0,00 h 0,17 h 0 W/m 1,1 km/h (1 Bft) 97,65 %
13.01.2018 00:00 4,6 C 4,4 C 3,3 C 98 % 1 lf 1025,7 hPa 0,0 l/m 0,00 h 0,00 h 0 W/m 1,8 km/h (1 Bft) 96,10 %
13.01.2018 01:00 4,5 C 4,0 C 3,0 C 98 % 2 lf 1025,3 hPa 0,0 l/m 0,00 h 0,00 h 0 W/m 4,2 km/h (1 Bft) 95,80 %
13.01.2018 02:00 4,3 C 3,9 C 2,6 C 98 % 3 lf 1025,1 hPa 0,0 l/m 0,00 h 0,00 h 0 W/m 5,5 km/h (1 Bft) 96,80 %
13.01.2018 03:00 4,1 C 3,8 C 2,4 C 98 % 6 lf 1024,9 hPa 0,0 l/m 0,00 h 0,00 h 0 W/m 6,8 km/h (2 Bft) 98,03 %
13.01.2018 04:00 3,8 C 3,3 C 2,2 C 98 % 12 lf 1024,5 hPa 0,0 l/m 0,00 h 0,00 h 0 W/m 1,0 km/h (0 Bft) 95,58 %
13.01.2018 05:00 3,6 C 3,1 C 2,2 C 98 % 14 lf 1024,3 hPa 0,0 l/m 0,00 h 0,00 h 0 W/m 0,0 km/h (0 Bft) 96,63 %
13.01.2018 06:00 3,5 C 3,3 C 2,2 C 98 % 15 lf 1024,1 hPa 0,0 l/m 0,00 h 0,00 h 0 W/m 0,3 km/h (0 Bft) 96,19 %
13.01.2018 07:00 3,4 C 1,8 C 0,3 C 98 % 15 lf 1023,9 hPa 0,0 l/m 0,00 h 0,00 h 0 W/m 0,0 km/h (0 Bft) 97,85 %
13.01.2018 08:00 2,4 C 2,0 C 1,0 C 98 % 15 lf 1023,9 hPa 0,0 l/m 0,00 h 0,00 h 6 W/m 0,7 km/h (0 Bft) 95,55 %
13.01.2018 09:00 3,7 C 4,6 C 3,1 C 98 % 14 lf 1024,0 hPa 0,0 l/m 0,00 h 0,00 h 14 W/m 18,1 km/h (3 Bft) 95,88 %
13.01.2018 10:00 4,8 C 5,8 C 4,5 C 99 % 0 lf 1024,3 hPa 0,0 l/m 0,00 h 0,00 h 28 W/m 23,8 km/h (4 Bft) 97,35 %
13.01.2018 11:00 5,4 C 6,1 C 5,1 C 94 % 0 lf 1024,4 hPa 0,0 l/m 0,00 h 0,00 h 60 W/m 28,5 km/h (4 Bft) 97,17 %
13.01.2018 12:00 5,6 C 6,3 C 5,3 C 86 % 0 lf 1024,2 hPa 0,0 l/m 0,07 h 0,00 h 115 W/m 29,3 km/h (5 Bft) 95,82 %
13.01.2018 13:00 6,0 C 7,3 C 6,1 C 82 % 0 lf 1023,6 hPa 0,0 l/m 0,20 h 0,00 h 150 W/m 25,1 km/h (4 Bft) 96,23 %
13.01.2018 14:00 6,4 C 7,2 C 5,8 C 80 % 0 lf 1022,9 hPa 0,0 l/m 0,03 h 0,00 h 109 W/m 24,2 km/h (4 Bft) 97,09 %
13.01.2018 15:00 6,4 C 6,9 C 5,5 C 79 % 0 lf 1022,4 hPa 0,0 l/m 0,33 h 0,00 h 76 W/m 21,9 km/h (4 Bft) 95,80 %
13.01.2018 16:00 6,1 C 5,7 C 4,0 C 77 % 0 lf 1022,2 hPa 0,0 l/m 0,00 h 0,00 h 18 W/m 19,5 km/h (3 Bft) 95,95 %
13.01.2018 17:00 5,3 C 5,0 C 3,5 C 79 % 0 lf 1022,2 hPa 0,0 l/m 0,00 h 0,00 h 0 W/m 13,9 km/h (3 Bft) 97,75 %
13.01.2018 18:00 4,9 C 4,3 C 2,6 C 81 % 0 lf 1022,1 hPa 0,0 l/m 0,00 h 0,00 h 0 W/m 9,8 km/h (2 Bft) 97,32 %
13.01.2018 19:00 4,3 C 4,0 C 2,4 C 82 % 0 lf 1021,9 hPa 0,0 l/m 0,00 h 0,00 h 0 W/m 12,1 km/h (2 Bft) 95,52 %
13.01.2018 20:00 4,2 C 4,0 C 2,8 C 83 % 0 lf 1021,8 hPa 0,0 l/m 0,00 h 0,00 h 0 W/m 17,1 km/h (3 Bft) 96,15 %
13.01.2018 21:00 4,2 C 4,1 C 2,8 C 83 % 0 lf 1021,6 hPa 0,0 l/m 0,00 h 0,00 h 0 W/m 15,3 km/h (3 Bft) 97,76 %
13.01.2018 22:00 4,4 C 4,7 C 3,5 C 82 % 0 lf 1021,3 hPa 0,0 l/m 0,00 h 0,00 h 0 W/m 19,8 km/h (4 Bft) 96,72 %
13.01.2018 23:00 5,2 C 5,1 C 3,9 C 79 % 0 lf 1021,1 hPa 0,0 l/m 0,00 h 0,00 h 0 W/m 25,5 km/h (4 Bft) 95,51 %
14.01.2018 00:00 5,1 C 5,0 C 3,9 C 79 % 0 lf 1020,7 hPa 0,0 l/m 0,00 h 0,00 h 0 W/m 21,3 km/h (4 Bft) 97,20 %
14.01.2018 01:00 5,0 C 5,0 C 3,9 C 80 % 0 lf 1020,5 hPa 0,0 l/m 0,00 h 0,00 h 0 W/m 19,7 km/h (3 Bft) 96,30 %
14.01.2018 02:00 4,9 C 4,9 C 3,8 C 80 % 0 lf 1020,3 hPa 0,0 l/m 0,00 h 0,00 h 0 W/m 24,1 km/h (4 Bft) 97,15 %
14.01.2018 03:00 4,7 C 4,4 C 3,3 C 80 % 0 lf 1020,2 hPa 0,0 l/m 0,00 h 0,00 h 0 W/m 25,3 km/h (4 Bft) 94,59 %
14.01.2018 04:00 4,4 C 4,4 C 3,3 C 80 % 0 lf 1020,1 hPa 0,0 l/m 0,00 h 0,00 h 0 W/m 28,8 km/h (4 Bft) 97,01 %
14.01.2018 05:00 4,1 C 3,9 C 2,9 C 80 % 0 lf 1019,8 hPa 0,0 l/m 0,00 h 0,00 h 0 W/m 28,6 km/h (4 Bft) 98,36 %
14.01.2018 06:00 3,9 C 3,9 C 2,8 C 81 % 0 lf 1019,7 hPa 0,0 l/m 0,00 h 0,00 h 0 W/m 25,6 km/h (4 Bft) 95,36 %
14.01.2018 07:00 3,7 C 3,8 C 2,8 C 82 % 0 lf 1019,7 hPa 0,0 l/m 0,00 h 0,00 h 0 W/m 28,5 km/h (4 Bft) 94,87 %
14.01.2018 08:00 3,6 C 3,3 C 2,2 C 82 % 0 lf 1019,8 hPa 0,0 l/m 0,00 h 0,00 h 10 W/m 26,9 km/h (4 Bft) 98,93 %
14.01.2018 09:00 3,4 C 3,5 C 2,2 C 82 % 0 lf 1020,2 hPa 0,0 l/m 0,03 h 0,00 h 47 W/m 23,9 km/h (4 Bft) 94,74 %
14.01.2018 10:00 3,5 C 4,2 C 2,4 C 82 % 0 lf 1020,2 hPa 0,0 l/m 0,73 h 0,00 h 136 W/m 31,0 km/h (5 Bft) 97,33 %
14.01.2018 11:00 3,8 C 5,0 C 3,1 C 81 % 0 lf 1020,0 hPa 0,0 l/m 0,30 h 0,00 h 140 W/m 29,8 km/h (5 Bft) 96,57 %
14.01.2018 12:00 4,1 C 4,9 C 4,0 C 81 % 0 lf 1019,8 hPa 0,0 l/m 0,00 h 0,00 h 135 W/m 29,3 km/h (5 Bft) 96,97 %
14.01.2018 13:00 4,4 C 5,1 C 4,4 C 80 % 0 lf 1019,5 hPa 0,0 l/m 0,03 h 0,00 h 126 W/m 26,7 km/h (4 Bft) 97,08 %
14.01.2018 14:00 4,6 C 5,1 C 4,3 C 80 % 0 lf 1019,3 hPa 0,0 l/m 0,00 h 0,00 h 100 W/m 24,0 km/h (4 Bft) 95,51 %
14.01.2018 15:00 4,4 C 4,6 C 3,7 C 80 % 0 lf 1019,1 hPa 0,0 l/m 0,40 h 0,00 h 83 W/m 26,0 km/h (4 Bft) 96,80 %
14.01.2018 16:00 4,0 C 3,8 C 2,4 C 81 % 0 lf 1019,1 hPa 0,0 l/m 0,17 h 0,00 h 23 W/m 24,3 km/h (4 Bft) 98,08 %
14.01.2018 17:00 3,2 C 2,9 C 1,3 C 83 % 0 lf 1019,1 hPa 0,0 l/m 0,00 h 0,00 h 3 W/m 20,6 km/h (4 Bft) 94,17 %
14.01.2018 18:00 2,7 C 2,5 C 1,1 C 85 % 0 lf 1018,9 hPa 0,0 l/m 0,00 h 0,00 h 0 W/m 20,9 km/h (4 Bft) 96,25 %
14.01.2018 19:00 2,4 C 2,2 C 0,7 C 86 % 0 lf 1018,8 hPa 0,0 l/m 0,00 h 0,00 h 0 W/m 19,2 km/h (3 Bft) 98,55 %
14.01.2018 20:00 2,2 C 2,2 C 0,6 C 87 % 0 lf 1018,5 hPa 0,0 l/m 0,00 h 0,00 h 0 W/m 20,1 km/h (4 Bft) 95,68 %
14.01.2018 21:00 2,0 C 1,7 C 0,1 C 88 % 0 lf 1018,2 hPa 0,0 l/m 0,00 h 0,00 h 0 W/m 21,3 km/h (4 Bft) 96,08 %
14.01.2018 22:00 1,7 C 1,6 C 0,0 C 88 % 0 lf 1018,1 hPa 0,0 l/m 0,00 h 0,00 h 0 W/m 22,0 km/h (4 Bft) 98,14 %
14.01.2018 23:00 1,5 C 1,3 C 0,0 C 89 % 0 lf 1017,7 hPa 0,0 l/m 0,00 h 0,00 h 0 W/m 22,7 km/h (4 Bft) 94,81 %
Min-Datum _ 09.01.18 09.01.18 09.01.18 13.01.18 08.01.18 10.01.18 - - - - 09.01.18 10.01.18
_ Min-Zeit 05:44 07:38 07:40 16:18 00:00 14:10 - - - - 07:42 19:28
Minimum _ 1,3 C 0,6 C -1,1 C 77 % 0 lf 1007,1 hPa - - - - 0,0 km/h (0 Bft) 87,23 %
Max-Datum _ 10.01.18 11.01.18 10.01.18 12.01.18 10.01.18 12.01.18 10.01.18 08.01.18 11.01.18 13.01.18 08.01.18 08.01.18
_ Max-Zeit 15:18 13:52 15:00 10:56 23:10 21:34 23:20 14:32 00:08 12:14 01:38 00:14
Maximum _ 9,2 C 18,9 C 8,9 C 99 % 15 lf 1026,1 hPa 0,4 l/m 0,03 h 0,07 h 288 W/m 54,1 km/h
O-NO (7 Bft)
100,00 %
Durchschnitt _ 4,7 C 4,7 C 3,4 C 91 % 3 lf 1017,6 hPa #1,0 l/m #5:16 h #5:10 h 59 W/m 14,3 km/h (3 Bft) 96,49 %
© 2018 W. Hausmann